Retour au catalogue

AETHER-11

ActifCommunicationsSSO
NORAD 67382·PAYLOAD·🇨🇦 Canada

Lancé Jan 11, 2026 depuis Vandenberg Space Force Base

Loading…

Prochains Passages (prochaines 24 heures)

TLE

FraisSource: Space-Track

Époque: Sep 14, 2026, 10:32 UTC

1 67382U 26004V   26257.43895060  .00000499  00000-0  63208-4 0  9990
2 67382  97.8099 254.4788 0000341 182.5433 177.5781 14.85952914 36544

Suivez AETHER-11 en temps réel avec AllMySat

Download on the App Store